Погода в Уржаре

Погода в Уржаре : погода сейчас, прогноз погоды и архив. Всё, что Вы хотите узнать о погоде в Уржаре!

Поиск расширенной информации на нашем сайте:

Другие новости

Новости СМИ2

Главная страница сайта

Новости сайта

03.07.2017

Напоминаем, что на нашем специализированном сайте Метеоцентр.Азия вы можете получить высокодетализированные автоматические прогнозы погоды по пунктам России, СНГ и мира в авиационном формате (включающие направление и скорость ветра, видимость, явления погоды, количество и форму облачности, нижнюю и верхнюю границу облачности).


Погода в Уржаре - сегодня

Время (UTC), дата Ветер
(°,м/с) 
Видим.   Явления Облачность Т
(°С)
Тd
(°С)
f(%) Тe
(°С)
Pmin
(гПа)
dP
(гПа)
Po
(мм)
O2
(г/м3)
Тmin Tmax R s Состояние
почвы
21 23.05.18 230 (ЮЗ) н/о  {ливн. осадки}  4/4 600 м кучево-дожд. 
[Cb cap]
+4 +1.8 86 +4  1018.1  2.4  719  285           
00 24.05.18 260 (З) 20000 м  {ливн. осадки}  8/6 600 м кучево-дожд., средняя 
[Cb cap|Ac und]
+4.9 +2.2 83 +3  1021.4  3.3  722  285           
03 24.05.18 230 (ЮЗ) 20000 м    8/6 600 м кучево-дожд., средняя 
[Cb cap|Ac und]
+7.9 +0.8 61 +8  1023.7  2.8  724  283      0.8     
09 24.05.18 250 (З) 20000 м    8/8 600 м кучево-дожд. 
[Cb calv]
+13.1 -4.8 28 +12  1025.9  726  280           
12 24.05.18 260 (З) 20000 м    6/0 средняя, верхняя 
[Ac lent|Ci fib]
+13.7 -3.3 31 +13  1026  0.2  726  279           
15 24.05.18 тихо ()   н/о    6/0 средняя 
[Ac lent]
+10 +1.2 54 +10  1027.1  0.4  727  282    +14       
18 24.05.18 130 (ЮВ) н/о    8/0 средняя, верхняя 
[Ac und|Ci sp]
+5.3 +0.5 71 +6  1027.8  -0.3  726  287    +14       
21 24.05.18 тихо ()   н/о    5/0 средняя 
[Ac trans]
+5.1 +2.4 83 +5  1026.9  -0.9  726  287           
00 25.05.18 тихо ()   20000 м    9/9 600 м кучево-дожд. 
[Cb cap]
+5.5 +3.1 85 +6  1026.8  726  286           
03 25.05.18 тихо ()   20000 м    8/0 средняя, верхняя 
[Ac und|Ci sp]
+11.5 +2.7 55 +12  1025.3  -0.2  725  280           
06 25.05.18 240 (ЮЗ) 20000 м    9/3 600 м средняя, верхняя 
[Sc|Ac und|Ci fib]
+15.9 +0.7 36 +17  1023  -1.3  725  276  +4.8         
09 25.05.18 150 (ЮВ) 20000 м    6/0 средняя, верхняя 
[Ac trans|Ci fib]
+17.4 +0.9 33 +19  1021.3  -1.3  724  274           
12 25.05.18 тихо ()   20000 м    8/0 средняя, верхняя 
[Ac und|Ci fib]
+18.6 +3.2 36 +19  1020.7  -0.4  723  272           
15 25.05.18 150 (ЮВ) н/о    6/3 600 м средняя 
[Sc|Ac und]
+13.2 +6.7 65 +14  1021.8  0.1  723  277    +20.1       
18 25.05.18 150 (ЮВ) н/о    4/0 средняя 
[Ac trans]
+11.9 +7.4 74 +13  1021.5  -0.5  723  278    +20.1       
21 25.05.18 тихо ()   н/о    ясно 
+7.3 +4.1 80 +7  1021.5  -1  722  283           
00 26.05.18 тихо ()   20000 м    ясно 
+6.3 +4 85 +6  1021  -0.7  722  284           
03 26.05.18 тихо ()   20000 м    ясно 
+19.9 +6.4 41 +20  1017.1  -1  721  270           
06 26.05.18 140 (ЮВ) 20000 м    3/3 600 м 
[Cu hum]
+25 +4.4 26 +25  1013.5  -2.5  719  265  +5.9         
09 26.05.18 120 (ЮВ) 20000 м    3/3 600 м 
[Cu hum]
+27.8 +2.9 20 +28  1010.6  -2.3  717  262           
12 26.05.18 130 (ЮВ) 20000 м    4/3 600 м верхняя 
[Cu hum|Ci fib]
+27 +5 24 +27  1009.4  -1.2  716  262           
15 26.05.18 тихо ()   н/о    ясно 
+17.6 +9.8 60 +19  1011.2  0.1  716  269    +28.1       
18 26.05.18 тихо ()   н/о    ясно 
+11 +7.3 78 +11  1012.2  -0.4  716  276    +28.1       
21 26.05.18 тихо ()   н/о    ясно 
+8 +5.2 82 +8  1011.6  -1.2  715  279           
00 27.05.18 тихо ()   20000 м    ясно 
+9 +5.8 80 +9  1010.4  -0.9  715  278           
Время (UTC), дата Ветер
(°,м/с) 
Видим.   Явления Облачность Т
(°С)
Тd
(°С)
f(%) Тe
(°С)
Pmin
(гПа)
dP
(гПа)
Po
(мм)
O2
(г/м3)
Тmin Tmax R s Состояние
почвы

Для получения пояснительной информации подведите курсор к названию столбца.

ПОГОДА в Уржаре - архив

Всё, что Вы хотите узнать о погоде в Уржаре - удобно и подробно!

Выберите нужную дату (начиная с 1 января 2015* года) и нажмите кнопку "Найти".
Будут отображены архивные сводки погоды по пункту Уржар, начиная с указанной даты.


Отображать данные в формате CSV (для использования в таблицах Excel)


Внимание! Наш архив погоды предназначен исключительно для личного некоммерческого использования в познавательных целях. Если Вам необходимы официальные справки о состоянии погоды (для производственных, юридических, коммерческих и т.п. целей), обращайтесь в органы Росгидромета.

*Примечание: данная дата относится к архиву по метеостанциям СССР (Россия, СНГ, Балтия).
Архив по метеостанциям Зарубежной Европы и Азии (кроме Китая) хранится 10 дней, по другим регионам земного шара (Китай, Африка, Америка, Австралия, Океания) - 1 день.

Уржар - район местоположения метеостанции


Название, широта, долгота, высота метеостанции:
Уржар 47.1°ш. 81.6°д. 491 м над ур. моря [Казахстан]

Дополнительная информация

В oтличие oт бoльшинства пoгoдных сайтoв мы публикуем пoдрoбную метеoинфoрмацию в детальнoм прoфессиoнальнoм фoрмате.

Характеристики температуры и влажнoсти вoздуха измеряются на высoте 2 м в тени вдали oт зданий и деревьев.
Скoрoсть ветра измеряется на высoте 10 м (на урoвне рoста челoвека скoрoсть ветра ниже в 1.5-2 раза). Если метеoстанция нахoдится в гoрoде или в лесу, тo скoрoсть ветра занижена на 2-4 м/с пo сравнению с oткрытым местoм. Скoрoсть ветра над акватoриями крупных рек и oзёр, а также на вершинах хoлмoв на 2-5 м/с выше, чем в oбычных услoвиях.
Атмoсфернoе давление в разных тoчках местнoсти мoжет значительнo oтличаться oт давления на метеoстанции, в зависимoсти oт услoвий рельефа (при пoдъёме на 10 м давление пoнижается примернo на 1 мм рт.ст.).